Temperature
22 22 22 22 22 22 21 21 21 21 20 20 20 20 19 19 19 19 19 19 19 19 19 19 19 18 18 18 18 18 18 18 18 18 18 18 18 18 18 18 18 18 18
22 22 22 22 22 22 21 21 21 21 20 20 20 19 19 19 19 19 19 19 19 19 19 19 18 18 18 18 18 18 18 18 18 18 18 18 18 18 18 18 18 18 18
22 22 22 22 22 22 22 21 21 21 21 20 20 19 19 19 19 19 19 19 19 19 19 19 18 18 18 18 18 18 18 18 18 18 18 18 18 18 18 18 18 18 18
23 22 22 22 22 22 22 21 21 21 20 20 20 20 19 19 19 19 18 18 18 18 18 18 18 18 18 18 18 18 18 18 18 18 18 18 18 18 17 18 18 18 18
23 23 22 22 22 22 22 21 21 21 20 20 20 19 19 19 19 18 18 18 18 18 18 18 18 18 18 18 18 18 18 18 18 18 18 18 18 18 18 17 17 17 17
23 23 22 22 22 22 21 21 21 21 20 20 20 19 19 19 19 18 18 18 18 18 18 18 18 18 18 18 18 18 18 18 18 18 18 18 18 18 18 18 17 17 17
23 22 22 22 22 22 21 21 21 20 20 20 20 19 19 19 19 18 18 18 18 18 18 18 18 18 18 18 18 18 18 18 18 18 18 18 18 18 18 18 17 17 17
23 22 22 22 22 22 21 21 21 20 20 20 19 19 19 19 18 18 18 18 18 18 18 18 18 18 18 17 17 18 18 18 18 17 17 17 18 18 18 18 17 17 16
23 22 22 22 22 22 21 21 20 20 20 19 19 19 19 18 18 18 18 18 18 18 18 17 17 17 17 17 17 17 17 17 17 17 17 17 17 17 17 17 17 17 16
23 22 22 22 22 22 21 21 20 20 19 19 19 18 18 18 18 18 18 18 17 17 17 17 17 17 17 17 17 17 17 17 17 17 17 17 17 17 17 17 17 17 17
23 22 22 22 22 21 21 21 20 20 19 19 19 18 18 18 18 17 17 17 17 17 17 17 17 17 17 17 16 16 16 16 16 16 16 17 16 16 16 16 16 16 16
23 22 22 21 21 21 20 20 20 20 19 19 18 18 18 17 17 17 17 17 17 17 17 17 17 17 16 16 16 16 16 16 16 16 16 16 16 16 16 16 16 16 16
22 22 22 21 21 21 20 20 20 19 19 18 18 18 17 17 17 17 17 17 17 17 17 17 16 16 16 16 16 16 16 16 16 16 15 15 15 16 16 16 15 15 15
22 22 21 21 21 20 20 20 19 19 19 18 18 18 17 17 17 17 17 17 16 16 16 16 16 16 16 16 15 15 15 15 15 15 15 15 15 15 15 15 15 15 15
21 21 21 20 20 20 20 19 19 19 19 18 18 17 17 17 17 16 16 16 16 16 16 16 16 16 15 15 15 15 15 15 15 15 15 15 15 15 15 14 14 14 14
21 21 20 20 20 20 19 19 19 18 18 18 18 17 17 17 16 16 16 16 16 16 16 16 16 15 15 15 15 15 15 15 14 14 14 14 14 14 14 14 14 14 14
20 20 20 20 20 19 19 19 19 18 18 17 17 17 17 16 16 16 15 15 15 15 15 15 15 15 15 15 14 14 14 14 14 14 14 14 14 14 14 14 14 13 13
20 20 20 20 20 19 19 19 18 18 18 17 17 17 16 16 16 15 15 15 15 15 15 15 15 15 15 14 14 14 14 14 13 13 13 13 13 13 13 13 13 13 13
21 20 20 20 19 19 19 18 18 18 17 17 17 16 16 16 15 15 15 15 15 15 14 14 14 14 14 14 14 14 14 13 13 13 13 13 13 13 13 13 13 13 13
20 20 20 19 19 19 18 18 18 17 17 17 16 16 16 16 15 15 15 15 14 14 14 14 14 14 14 14 14 14 13 13 13 13 13 13 12 12 12 12 12 12 13
20 20 19 19 19 18 18 17 17 17 17 16 16 16 16 15 15 15 14 14 14 14 14 14 13 13 13 13 13 13 13 13 13 13 12 12 12 12 12 12 12 12 12
19 19 19 18 18 18 17 17 17 17 16 16 16 15 15 15 14 14 14 14 14 13 13 13 13 13 13 13 13 13 12 12 12 12 12 12 12 12 12 12 12 12 12
19 18 18 18 17 17 17 17 16 16 16 15 15 15 14 14 14 14 14 13 13 13 13 13 13 13 13 12 12 12 12 12 12 12 12 12 12 12 12 12 12 12 11
18 18 17 17 17 16 16 16 16 15 15 15 15 14 14 14 14 13 13 13 13 12 12 12 12 12 12 12 12 12 12 12 12 12 11 11 11 11 11 12 11 11 11
17 17 17 16 16 16 16 15 15 15 14 14 14 14 13 13 13 13 13 13 12 12 12 12 12 11 11 12 12 11 11 11 11 11 11 11 11 11 11 11 11 11 11
16 16 16 16 15 15 15 14 14 14 14 14 14 13 13 13 13 12 12 12 12 12 12 12 11 11 11 11 11 11 11 11 11 11 11 11 11 11 11 11 11 11 11
Wind_Speed
8 7 8 9 8 7 6 5 5 4 4 3 3 3 2 2 2 2 3 4 4 4 4 4 3 3 2 2 2 2 2 1 1 2 2 2 1 1 2 2 2 3 5
8 7 7 8 8 7 6 6 5 4 4 3 3 2 2 1 2 2 2 3 3 3 3 3 3 2 2 2 1 2 2 0 1 2 2 2 3 2 1 1 2 2 2
12 10 9 8 8 8 7 7 5 5 4 4 4 3 3 3 3 2 2 2 3 3 3 3 2 2 2 1 1 2 3 1 1 1 3 2 2 1 2 0 1 2 2
11 10 9 8 8 8 7 7 6 5 4 5 5 5 4 2 1 1 1 2 2 2 3 3 2 2 2 1 1 1 2 2 1 1 1 2 3 2 1 2 1 1 2
12 12 11 9 8 7 7 6 6 5 4 5 6 5 4 2 1 2 2 2 2 2 2 2 2 2 1 1 1 1 1 1 1 1 0 0 1 1 2 1 1 1 1
11 10 9 8 7 7 6 6 6 4 4 5 5 5 5 4 3 2 2 1 1 1 2 2 1 1 1 1 1 1 1 1 1 0 1 1 1 1 2 2 1 1 1
11 10 10 9 8 8 7 7 7 5 4 5 4 4 5 4 4 3 2 1 1 1 1 1 1 1 0 1 1 1 1 1 1 0 0 0 1 2 2 3 2 1 1
10 10 11 10 9 9 8 7 7 5 4 4 4 3 4 3 3 3 2 2 1 1 0 1 1 1 1 1 1 1 0 1 1 1 0 1 1 1 2 3 3 2 1
11 11 10 10 10 10 8 8 7 5 4 4 4 3 3 3 3 2 2 2 1 1 1 1 1 1 1 1 1 1 1 1 1 1 1 1 1 1 1 2 3 4 3
10 10 9 9 9 9 8 7 6 5 4 4 3 3 2 2 3 3 2 2 1 2 2 1 1 1 1 1 2 1 1 1 1 0 1 1 1 1 1 1 1 2 4
11 10 9 8 8 7 7 7 6 5 4 4 4 3 3 3 3 2 2 2 2 2 2 2 2 2 2 2 1 1 1 1 1 1 1 1 1 2 1 1 2 2 3
10 10 10 9 8 8 7 7 6 6 5 5 5 4 3 3 3 2 1 2 2 2 2 2 2 1 1 1 1 1 1 1 0 1 1 1 1 2 2 1 2 1 2
9 9 9 9 9 9 8 7 7 6 6 5 5 4 3 3 2 2 1 1 2 1 1 1 1 0 0 1 1 0 1 1 1 0 0 0 1 2 2 2 2 1 1
10 9 8 8 8 8 7 7 7 6 6 5 5 4 3 3 2 2 1 1 1 1 1 0 0 1 0 0 0 1 0 0 1 1 0 0 1 1 1 1 1 1 1
10 10 9 7 7 7 6 7 6 6 6 5 5 4 3 3 2 1 1 1 1 1 0 0 1 1 1 1 0 0 1 1 1 1 1 0 0 0 1 1 1 1 1
10 10 9 8 8 7 7 6 6 6 6 6 5 4 3 3 2 2 1 1 0 0 0 0 1 2 2 1 1 1 1 1 1 1 2 1 1 1 1 0 1 3 3
9 9 9 9 8 8 8 7 6 5 6 5 4 4 4 3 2 2 2 1 1 0 0 1 1 2 2 2 2 2 1 1 2 2 2 2 2 1 1 1 2 1 3
8 8 8 7 7 6 6 5 5 6 5 4 4 4 4 3 2 2 2 2 1 1 1 1 1 1 2 2 2 2 1 1 2 2 3 2 3 3 1 1 2 2 3
7 7 7 7 7 7 7 6 5 5 4 4 4 4 4 4 3 3 3 2 2 2 2 2 2 1 3 3 2 1 1 1 2 2 2 2 2 2 1 1 2 3 4
5 6 6 6 6 6 6 7 5 5 4 4 4 3 3 4 4 4 3 2 1 2 2 2 2 2 3 2 2 1 1 1 2 2 2 3 2 2 1 1 2 3 5
6 6 7 6 5 5 7 6 4 4 4 3 3 3 2 3 3 2 2 1 1 1 1 2 2 2 2 3 2 2 2 2 2 2 2 3 3 3 3 3 3 6 5
5 6 6 5 4 5 6 5 3 2 2 2 2 1 1 1 2 2 1 1 1 1 1 1 2 2 3 3 2 2 2 2 3 3 3 3 4 5 5 4 5 5 3
5 5 6 5 4 3 5 5 2 2 3 3 2 1 1 1 1 2 2 1 1 1 1 1 2 3 3 3 3 3 3 3 3 3 4 4 5 5 4 5 5 3 1
5 6 7 6 4 2 3 3 2 3 3 2 2 1 1 1 0 1 1 2 2 2 2 2 2 3 3 3 3 3 3 3 3 3 3 4 4 3 3 4 3 2 3
4 5 6 5 3 3 3 2 2 4 3 2 1 1 1 1 0 1 1 2 3 4 4 3 3 2 4 5 5 3 2 3 3 1 1 1 1 2 2 2 3 3 2
4 4 5 4 3 3 2 2 2 3 3 2 1 1 1 1 1 0 2 3 2 2 2 3 3 4 5 5 4 4 4 4 3 2 1 2 2 2 3 3 4 3 3
Wind_Direction
162 152 145 139 132 126 121 117 110 106 104 102 102 97 80 64 59 64 73 84 90 98 100 102 96 92 99 110 119 114 101 111 118 87 28 354 312 212 199 180 171 191 191
156 157 152 148 146 143 140 136 133 128 123 127 131 130 125 106 99 65 64 86 95 104 109 106 112 108 101 80 84 119 121 149 141 134 103 17 350 337 238 175 185 189 159
168 169 162 158 151 152 156 151 150 142 135 128 113 100 78 59 51 50 47 45 82 95 107 113 114 119 126 136 151 152 146 172 263 163 147 153 215 300 337 335 151 161 153
167 166 164 162 162 166 162 153 151 142 140 134 127 126 123 128 156 147 91 58 60 77 99 109 112 111 107 119 134 133 144 147 205 298 210 185 164 160 280 338 357 133 156
167 167 167 169 166 161 156 149 142 138 137 135 139 134 129 140 131 98 84 61 40 55 79 109 104 100 92 108 85 86 113 136 163 207 230 103 98 133 155 221 304 353 338
162 160 158 153 151 150 145 143 136 136 139 139 138 139 141 141 126 114 103 72 31 30 37 78 87 96 96 128 141 139 119 112 115 120 133 154 159 182 161 179 202 208 300
160 157 154 152 154 152 151 146 140 140 140 133 139 147 151 151 151 155 153 141 82 31 3 47 63 56 122 104 84 84 64 60 84 99 129 168 201 183 162 152 165 182 263
162 161 162 160 157 154 151 152 151 153 154 146 145 137 136 143 149 158 160 159 166 180 238 77 84 68 60 63 73 61 17 55 89 63 62 44 339 145 159 160 153 141 353
162 161 162 159 158 158 161 162 159 157 159 156 148 136 135 136 137 131 137 145 153 132 78 62 86 62 40 47 76 81 28 35 38 32 45 47 352 26 120 147 154 156 171
161 163 162 163 164 165 164 157 155 157 158 152 154 146 138 127 119 110 113 121 116 105 97 66 60 44 32 45 64 63 22 33 352 25 44 24 356 21 65 109 117 137 157
162 156 156 161 156 150 151 150 151 144 142 145 136 122 117 111 96 99 119 121 100 101 106 103 71 39 24 24 39 350 18 45 348 4 37 11 17 39 31 71 94 100 126
153 150 151 154 150 149 152 151 150 146 144 138 132 132 131 120 108 105 131 129 121 111 115 100 85 64 33 24 33 359 24 51 2 343 23 356 27 37 33 78 92 104 128
139 143 148 150 154 157 158 157 155 153 148 142 135 130 131 132 135 139 136 123 116 101 94 101 106 121 63 14 341 76 58 29 348 341 65 338 44 33 43 69 93 99 91
143 147 151 153 153 153 156 156 157 156 152 146 142 142 148 152 156 155 138 126 127 120 98 114 197 236 233 34 34 64 86 10 348 354 33 229 126 143 115 76 113 116 92
153 156 157 155 151 152 156 155 156 159 157 151 152 164 164 156 151 145 143 130 145 158 154 118 324 305 262 248 150 218 244 246 300 341 322 272 113 153 176 159 179 154 153
160 156 153 152 156 158 158 157 159 163 156 158 171 175 166 164 169 170 156 138 110 8 95 121 298 301 293 284 260 201 222 213 202 262 296 294 295 348 8 3 193 187 189
155 158 161 164 164 162 160 165 167 158 157 164 171 175 173 174 183 180 155 164 187 172 125 260 286 289 301 312 301 291 218 202 207 223 253 282 287 301 278 301 310 265 220
155 159 160 160 160 157 157 155 151 152 156 162 171 178 175 179 182 180 195 208 203 200 220 246 271 293 315 326 309 311 258 210 219 229 226 235 268 267 229 250 297 286 261
159 163 164 161 157 158 154 140 143 150 156 171 186 193 185 186 191 201 215 217 201 217 232 233 239 268 299 322 319 322 279 243 262 259 245 213 226 265 254 218 269 294 291
136 145 142 134 142 152 146 140 147 155 174 190 195 196 190 193 199 204 207 205 194 221 238 252 246 238 264 294 297 257 219 255 282 285 265 238 235 263 267 208 221 260 272
132 133 130 132 146 150 143 143 148 175 194 184 171 174 180 192 194 202 200 186 198 238 269 269 278 265 268 284 274 240 211 223 249 266 271 267 267 262 261 236 232 246 254
126 127 126 123 119 127 132 135 155 178 146 132 128 140 159 176 158 159 188 195 186 196 292 306 314 309 304 297 277 255 238 222 213 241 250 258 265 260 263 257 256 256 260
125 115 116 109 97 106 127 138 161 133 108 105 112 95 86 101 136 160 185 191 187 210 259 271 284 299 303 301 298 278 266 254 240 245 250 259 266 267 267 267 273 265 240
115 116 113 111 107 98 105 127 139 126 115 124 134 133 123 114 52 179 191 201 209 214 232 247 268 289 298 296 293 285 275 270 258 256 268 280 276 267 277 294 293 263 235
113 119 123 125 123 107 94 97 120 122 116 120 138 136 144 162 185 275 248 219 220 211 214 226 229 244 271 272 262 253 262 255 246 250 307 319 325 308 301 297 285 272 260
123 122 124 126 124 112 100 82 89 114 124 131 175 186 188 191 182 169 352 353 319 293 263 242 244 260 261 279 265 259 259 250 209 158 204 250 250 254 262 272 283 275 263
Height
1510 1511 1512 1512 1512 1513 1514 1514 1514 1515 1515 1516 1516 1517 1517 1517 1518 1518 1518 1518 1518 1518 1518 1518 1518 1518 1518 1519 1519 1519 1519 1520 1520 1521 1521 1521 1521 1522 1522 1523 1523 1523 1523
1510 1511 1512 1512 1512 1513 1513 1514 1515 1515 1516 1516 1517 1517 1518 1518 1519 1519 1519 1519 1519 1519 1519 1519 1519 1519 1519 1519 1519 1519 1519 1520 1521 1520 1520 1521 1522 1521 1522 1522 1522 1523 1523
1507 1509 1511 1511 1512 1513 1514 1514 1515 1516 1516 1517 1517 1518 1518 1519 1519 1519 1519 1520 1520 1519 1519 1519 1519 1519 1519 1519 1519 1519 1520 1520 1520 1520 1521 1521 1520 1521 1521 1521 1521 1522 1522
1506 1508 1509 1511 1512 1512 1513 1514 1515 1516 1516 1517 1517 1517 1518 1518 1519 1519 1520 1520 1520 1520 1520 1520 1519 1519 1519 1519 1519 1519 1519 1519 1519 1519 1520 1520 1520 1520 1520 1520 1521 1521 1521
1504 1506 1508 1510 1511 1512 1513 1514 1515 1515 1516 1517 1518 1518 1518 1519 1519 1520 1520 1520 1520 1520 1520 1520 1519 1519 1519 1518 1518 1518 1518 1518 1518 1518 1518 1518 1519 1518 1518 1518 1519 1520 1520
1503 1505 1507 1509 1511 1512 1513 1514 1515 1515 1516 1517 1518 1518 1518 1519 1519 1520 1519 1519 1520 1519 1519 1519 1519 1518 1518 1517 1517 1517 1517 1517 1517 1517 1517 1517 1517 1517 1517 1516 1517 1518 1519
1501 1504 1506 1508 1509 1511 1512 1513 1514 1515 1516 1517 1517 1518 1518 1519 1519 1519 1519 1519 1519 1518 1518 1518 1517 1517 1516 1516 1516 1516 1515 1515 1515 1515 1515 1515 1515 1515 1515 1515 1516 1516 1517
1500 1502 1504 1506 1508 1510 1511 1513 1514 1515 1516 1516 1517 1517 1518 1518 1518 1518 1518 1518 1518 1517 1517 1517 1516 1515 1514 1514 1514 1514 1514 1514 1513 1513 1513 1513 1513 1513 1513 1514 1514 1514 1515
1498 1501 1503 1505 1507 1509 1510 1511 1513 1514 1515 1516 1516 1517 1517 1517 1518 1518 1517 1517 1517 1517 1516 1516 1515 1514 1514 1513 1513 1512 1512 1512 1512 1511 1511 1511 1511 1511 1511 1512 1512 1513 1513
1497 1500 1502 1504 1506 1508 1509 1511 1512 1514 1515 1515 1516 1516 1517 1517 1517 1517 1516 1516 1516 1516 1515 1515 1514 1513 1512 1512 1512 1511 1510 1510 1510 1510 1509 1509 1509 1509 1509 1509 1510 1510 1511
1495 1498 1500 1503 1505 1507 1509 1510 1511 1513 1513 1514 1515 1515 1515 1516 1516 1516 1516 1515 1515 1515 1515 1514 1513 1512 1511 1511 1510 1510 1509 1508 1508 1508 1508 1507 1507 1507 1507 1507 1508 1508 1509
1493 1496 1499 1501 1504 1506 1507 1509 1510 1511 1512 1513 1514 1514 1514 1515 1515 1515 1515 1514 1514 1514 1514 1513 1512 1511 1510 1509 1509 1508 1508 1507 1507 1506 1506 1505 1505 1505 1505 1505 1506 1506 1506
1493 1496 1498 1500 1502 1504 1506 1507 1509 1510 1511 1512 1512 1513 1513 1513 1513 1513 1513 1513 1513 1513 1512 1511 1510 1510 1509 1508 1507 1507 1506 1505 1505 1505 1504 1504 1504 1503 1503 1504 1504 1504 1505
1492 1495 1497 1499 1501 1503 1504 1506 1507 1508 1509 1510 1511 1511 1511 1512 1512 1512 1512 1512 1512 1511 1510 1510 1509 1508 1507 1506 1506 1505 1504 1503 1503 1503 1502 1502 1502 1502 1502 1502 1502 1502 1502
1491 1493 1495 1498 1500 1502 1503 1504 1506 1507 1508 1509 1509 1509 1510 1510 1511 1510 1510 1510 1510 1509 1508 1508 1507 1506 1505 1504 1504 1503 1502 1501 1501 1501 1500 1500 1500 1500 1500 1500 1500 1500 1500
1489 1492 1494 1496 1498 1500 1502 1503 1504 1505 1506 1507 1507 1508 1508 1509 1509 1509 1509 1509 1508 1507 1507 1506 1505 1504 1503 1502 1502 1501 1500 1499 1499 1498 1498 1498 1498 1498 1498 1498 1498 1498 1498
1487 1489 1491 1494 1496 1498 1500 1502 1503 1504 1504 1505 1505 1506 1506 1506 1507 1507 1507 1506 1506 1505 1505 1504 1503 1501 1501 1500 1499 1498 1498 1497 1496 1496 1495 1495 1495 1495 1495 1495 1495 1496 1496
1486 1488 1490 1492 1494 1496 1498 1500 1501 1502 1503 1503 1503 1504 1504 1504 1504 1505 1504 1504 1504 1503 1502 1501 1500 1499 1498 1498 1497 1496 1495 1494 1494 1493 1493 1492 1492 1492 1492 1492 1492 1492 1492
1485 1487 1489 1491 1493 1494 1496 1497 1499 1500 1500 1501 1501 1502 1502 1502 1502 1502 1502 1501 1501 1500 1500 1499 1498 1497 1496 1495 1494 1494 1492 1492 1491 1491 1490 1490 1489 1489 1489 1489 1488 1488 1488
1484 1486 1487 1489 1491 1493 1494 1495 1496 1497 1498 1498 1499 1499 1499 1499 1499 1499 1499 1498 1498 1497 1497 1496 1495 1494 1493 1493 1492 1491 1490 1489 1488 1488 1487 1487 1487 1486 1486 1486 1485 1484 1484
1483 1485 1486 1488 1489 1491 1492 1493 1494 1495 1496 1496 1497 1496 1496 1496 1496 1496 1496 1495 1495 1494 1494 1493 1492 1491 1491 1490 1489 1488 1487 1486 1486 1485 1484 1484 1484 1484 1483 1483 1482 1482 1481
1482 1484 1485 1486 1488 1490 1491 1491 1492 1493 1494 1494 1494 1493 1493 1493 1493 1493 1493 1492 1492 1491 1491 1490 1489 1488 1487 1487 1486 1485 1484 1483 1482 1482 1481 1481 1481 1481 1480 1480 1479 1479 1478
1482 1483 1484 1485 1487 1488 1489 1489 1490 1491 1491 1491 1491 1491 1491 1491 1491 1490 1490 1489 1488 1488 1487 1487 1485 1484 1484 1483 1482 1481 1480 1480 1479 1478 1478 1477 1477 1477 1476 1476 1475 1475 1474
1481 1482 1483 1484 1485 1486 1487 1487 1488 1489 1489 1489 1488 1489 1489 1488 1488 1488 1487 1486 1485 1485 1484 1483 1482 1481 1480 1479 1478 1477 1476 1475 1475 1474 1473 1473 1473 1473 1472 1472 1471 1471 1470
1480 1482 1482 1483 1484 1485 1485 1486 1486 1486 1486 1486 1486 1486 1487 1486 1486 1485 1485 1484 1483 1482 1481 1480 1479 1478 1476 1476 1475 1474 1472 1471 1471 1470 1469 1469 1469 1468 1468 1468 1467 1467 1466
1480 1481 1482 1482 1482 1483 1484 1484 1484 1484 1484 1484 1484 1484 1484 1484 1483 1483 1482 1482 1481 1480 1479 1478 1478 1476 1475 1473 1472 1471 1469 1468 1467 1467 1465 1465 1465 1464 1464 1463 1463 1463 1462